Weather History for Wakefield, VA

Change the Weather History Date:

Thursday, December 13, 2012

  Actual Average (KJGG) Record (KJGG)
Temperature  
Mean Temperature 41 °F -  
Max Temperature 52 °F 53 °F 72 °F (1956)
Min Temperature 28 °F 33 °F 7 °F (1962)
Degree Days  
Heating Degree Days 24    
Moisture  
Dew Point 31 °F    
Average Humidity 67    
Maximum Humidity 92    
Minimum Humidity 45    
Precipitation  
Precipitation 0.04 in - - ()
Sea Level Pressure  
Sea Level Pressure 30.36 in    
Wind  
Wind Speed 6 mph (NNE)    
Max Wind Speed 10 mph    
Max Gust Speed 17 mph    
Visibility 8 miles    
Events Rain    
Averages and records for this station are not official NWS values.
T = Trace of Precipitation, MM = Missing Value Source: NWS Daily Summary

Daily Weather History Graph

Daily Weather History Graph

Search for Another Location

Airport:

Trip Planner

Search our weather history database for the weather conditions in past years. The results will help you decide how hot, cold, wet, or windy it might be!

Date:

Astronomy

Dec. 13, 2012 Rise Set
Actual Time 7:12 AM EST 4:52 PM EST
Civil Twilight 6:43 AM EST 5:21 PM EST
Nautical Twilight 6:11 AM EST 5:53 PM EST
Astronomical Twilight 5:39 AM EST 6:25 PM EST
Moon 7:19 AM EST (12/13) 5:31 PM EST (12/13)
Length of Visible Light 10h 37m
Length of Day
9h 39m
New Moon, 0% of the Moon is Illuminated
Dec 13
New Moon
Dec 20
First Quarter
Dec 28
Full
Jan 4
Last Quarter
Jan 11
New

Hourly Weather History & Observations

Time (EST) Temp. Windchill Dew Point Humidity Pressure Visibility Wind Dir Wind Speed Gust Speed Precip Events Conditions
12:54 AM 43.0 °F 38.2 °F 30.0 °F 60% 30.33 in 10.0 mi NNE 8.1 mph - N/A   Overcast
1:54 AM 39.9 °F 35.8 °F 33.1 °F 77% 30.34 in 6.0 mi NNE 5.8 mph - 0.02 in Rain Light Rain
2:54 AM 39.0 °F 34.8 °F 19.0 °F 45% 30.34 in 6.0 mi NNE 5.8 mph - 0.02 in Rain Light Rain
3:54 AM 39.9 °F - 26.1 °F 58% 30.35 in 6.0 mi Calm Calm - 0.00 in Rain Light Rain
4:54 AM 39.9 °F 35.8 °F 30.9 °F 70% 30.34 in 7.0 mi NNE 5.8 mph - 0.00 in   Scattered Clouds
5:54 AM 39.9 °F 33.9 °F 28.9 °F 65% 30.32 in 7.0 mi NNE 9.2 mph - N/A   Clear
7:54 AM 39.0 °F 34.8 °F 30.0 °F 70% 30.35 in 6.0 mi North 5.8 mph - N/A   Haze
8:54 AM 41.0 °F 38.0 °F 30.9 °F 67% 30.38 in 6.0 mi NNE 4.6 mph - N/A   Haze
9:54 AM 44.1 °F 38.6 °F 30.9 °F 60% 30.39 in 7.0 mi North 10.4 mph - N/A   Clear
10:54 AM 48.0 °F - 35.1 °F 61% 30.38 in 9.0 mi NNE 8.1 mph 17.3 mph N/A   Clear
11:54 AM 50.0 °F - 35.1 °F 57% 30.38 in 10.0 mi Variable 6.9 mph - N/A   Clear
12:54 PM 51.1 °F - 35.1 °F 54% 30.36 in 10.0 mi NE 9.2 mph 16.1 mph N/A   Clear
1:54 PM 52.0 °F - 35.1 °F 53% 30.35 in 10.0 mi NE 8.1 mph - N/A   Partly Cloudy
2:54 PM 52.0 °F - 35.1 °F 53% 30.35 in 10.0 mi North 9.2 mph - N/A   Partly Cloudy
3:54 PM 51.1 °F - 34.0 °F 52% 30.36 in 10.0 mi NNE 5.8 mph - N/A   Clear
4:54 PM 46.0 °F - 34.0 °F 63% 30.35 in 10.0 mi Calm Calm - N/A   Clear
8:54 PM 33.1 °F - 30.0 °F 89% 30.38 in 10.0 mi Calm Calm - N/A   Clear
9:54 PM 30.9 °F - 28.9 °F 92% 30.38 in 10.0 mi Calm Calm - N/A   Clear
10:54 PM 30.0 °F - 28.0 °F 92% 30.37 in 9.0 mi Calm Calm - N/A   Clear
11:54 PM 28.9 °F - 27.0 °F 92% 30.37 in 8.0 mi Calm Calm - N/A   Clear